Temp
-7 -6 -6 -6 -6 -6 -6 -6 -6 -7 -7 -7 -7 -7 -7 -7 -7 -7 -7 -7 -7 -7 -7 -7 -7 -7 -7 -7 -7 -7 -7 -7 -7 -7 -7 -7 -7 -7 -7 -7 -7 -7 -7
-7 -7 -6 -6 -6 -6 -6 -7 -7 -7 -7 -7 -7 -7 -7 -7 -7 -7 -7 -7 -7 -7 -7 -7 -7 -7 -7 -7 -7 -7 -7 -7 -7 -7 -7 -7 -7 -7 -8 -8 -8 -8 -8
-7 -7 -7 -6 -6 -7 -7 -7 -7 -7 -7 -7 -7 -7 -7 -7 -7 -7 -7 -7 -7 -7 -7 -7 -7 -7 -7 -7 -7 -7 -7 -7 -7 -7 -7 -7 -7 -7 -7 -7 -8 -8 -8
-7 -7 -7 -7 -7 -7 -7 -7 -7 -7 -8 -7 -7 -7 -7 -7 -8 -8 -7 -7 -7 -7 -7 -7 -7 -7 -7 -7 -7 -7 -7 -7 -7 -7 -7 -7 -7 -7 -7 -8 -8 -8 -8
-7 -7 -7 -7 -7 -7 -7 -7 -8 -8 -8 -8 -8 -8 -8 -8 -8 -7 -7 -7 -8 -8 -8 -8 -8 -8 -8 -8 -8 -8 -8 -8 -8 -7 -8 -8 -8 -8 -8 -8 -8 -8 -8
-8 -8 -7 -7 -7 -7 -7 -8 -8 -8 -8 -8 -8 -8 -8 -8 -8 -7 -7 -8 -8 -8 -8 -8 -8 -8 -8 -8 -8 -8 -8 -8 -8 -8 -8 -8 -8 -8 -8 -8 -8 -8 -8
-8 -8 -8 -8 -8 -8 -8 -8 -8 -8 -8 -8 -8 -8 -8 -8 -8 -7 -8 -8 -8 -8 -8 -8 -8 -8 -8 -8 -8 -8 -8 -8 -8 -8 -8 -8 -8 -8 -9 -9 -9 -9 -9
-8 -8 -8 -8 -8 -8 -8 -8 -8 -8 -8 -8 -8 -8 -8 -8 -8 -8 -8 -8 -8 -8 -8 -8 -8 -8 -8 -8 -8 -8 -8 -8 -8 -8 -8 -8 -9 -9 -9 -9 -9 -9 -9
-8 -8 -8 -8 -8 -8 -9 -9 -9 -9 -8 -8 -8 -8 -8 -8 -8 -8 -8 -8 -8 -8 -8 -8 -8 -8 -8 -8 -8 -8 -8 -9 -9 -9 -9 -9 -9 -10 -10 -10 -10 -10 -10
-9 -9 -9 -8 -8 -8 -9 -9 -9 -9 -9 -9 -9 -8 -8 -8 -8 -8 -8 -8 -8 -8 -8 -8 -8 -8 -8 -8 -8 -8 -9 -9 -9 -10 -10 -10 -10 -10 -10 -10 -10 -10 -10
-9 -9 -9 -9 -9 -9 -9 -9 -9 -9 -9 -9 -9 -9 -8 -8 -9 -9 -8 -9 -8 -8 -8 -8 -8 -8 -8 -9 -9 -10 -10 -11 -11 -10 -10 -10 -10 -10 -10 -11 -10 -10 -10
-10 -10 -10 -10 -9 -9 -9 -9 -9 -9 -9 -9 -9 -9 -8 -9 -9 -9 -9 -9 -8 -8 -8 -8 -8 -8 -8 -9 -10 -11 -11 -11 -11 -11 -11 -11 -11 -11 -11 -11 -11 -11 -11
-10 -10 -10 -10 -10 -11 -10 -10 -10 -9 -9 -9 -9 -9 -9 -9 -9 -9 -9 -9 -9 -8 -8 -8 -8 -8 -9 -9 -10 -11 -11 -11 -11 -11 -11 -11 -11 -11 -12 -12 -12 -12 -12
-10 -10 -11 -11 -11 -11 -10 -10 -10 -10 -9 -9 -9 -9 -9 -9 -9 -9 -9 -9 -9 -8 -8 -8 -8 -9 -9 -10 -10 -11 -11 -11 -11 -11 -11 -12 -12 -12 -12 -13 -12 -12 -12
-10 -11 -12 -12 -12 -11 -10 -10 -10 -10 -10 -9 -9 -9 -9 -9 -9 -9 -9 -9 -9 -9 -9 -9 -9 -9 -10 -10 -10 -11 -12 -12 -12 -12 -12 -12 -12 -12 -12 -12 -12 -12 -12
-10 -11 -12 -12 -11 -11 -10 -10 -10 -10 -10 -9 -9 -9 -9 -9 -9 -9 -9 -9 -9 -9 -9 -9 -10 -10 -10 -11 -11 -11 -12 -12 -12 -12 -12 -12 -12 -12 -12 -12 -12 -12 -12
-11 -11 -11 -12 -11 -11 -10 -10 -10 -10 -10 -10 -9 -9 -9 -9 -9 -9 -9 -9 -9 -9 -9 -10 -10 -10 -11 -11 -11 -12 -12 -12 -12 -12 -12 -12 -12 -12 -12 -12 -12 -12 -11
-11 -11 -12 -12 -12 -11 -10 -10 -10 -10 -10 -10 -10 -9 -9 -9 -9 -9 -9 -9 -9 -9 -10 -10 -10 -11 -11 -11 -11 -11 -12 -12 -12 -12 -12 -12 -12 -11 -11 -11 -11 -11 -11
-11 -11 -11 -11 -11 -11 -10 -10 -10 -10 -10 -10 -10 -9 -9 -9 -9 -10 -10 -10 -9 -10 -10 -10 -11 -11 -11 -11 -11 -11 -11 -11 -11 -12 -11 -11 -11 -11 -11 -11 -11 -11 -11
-11 -11 -11 -11 -11 -11 -11 -10 -10 -10 -10 -10 -10 -10 -10 -10 -10 -10 -10 -10 -10 -10 -10 -10 -11 -11 -11 -11 -11 -11 -11 -11 -11 -11 -11 -11 -11 -11 -11 -11 -11 -11 -11
-11 -11 -11 -11 -11 -11 -11 -11 -11 -10 -10 -10 -10 -10 -10 -10 -10 -10 -10 -10 -10 -10 -10 -11 -11 -11 -11 -11 -11 -11 -11 -11 -11 -11 -11 -11 -11 -11 -11 -11 -11 -11 -11
-11 -11 -11 -11 -11 -11 -11 -11 -11 -11 -11 -10 -10 -10 -10 -10 -10 -10 -10 -10 -10 -10 -11 -11 -11 -11 -11 -11 -11 -11 -11 -11 -11 -11 -11 -11 -11 -11 -11 -11 -11 -11 -11
-11 -11 -11 -11 -11 -11 -11 -11 -11 -11 -11 -10 -10 -10 -10 -10 -10 -10 -10 -10 -10 -11 -11 -11 -11 -11 -11 -11 -11 -11 -11 -11 -11 -11 -11 -11 -11 -11 -11 -11 -11 -11 -11
-12 -12 -12 -12 -11 -11 -11 -11 -11 -11 -10 -10 -10 -10 -10 -10 -11 -11 -11 -10 -11 -11 -11 -11 -12 -11 -11 -11 -11 -11 -11 -11 -11 -11 -11 -11 -11 -12 -12 -11 -12 -12 -12
-12 -12 -12 -12 -12 -12 -11 -11 -11 -11 -11 -11 -11 -10 -11 -11 -11 -11 -11 -11 -11 -11 -11 -12 -12 -12 -12 -11 -11 -11 -11 -11 -11 -11 -11 -11 -11 -11 -12 -12 -12 -12 -12
-12 -12 -12 -12 -12 -12 -11 -11 -11 -11 -11 -11 -11 -11 -11 -11 -11 -11 -11 -11 -11 -12 -12 -12 -12 -12 -12 -12 -11 -11 -11 -12 -11 -11 -11 -11 -12 -12 -12 -12 -12 -12 -12
Height
5889 5889 5889 5890 5891 5891 5891 5891 5890 5890 5890 5890 5890 5890 5890 5889 5889 5888 5887 5886 5885 5884 5883 5882 5880 5879 5878 5878 5877 5876 5875 5874 5873 5872 5872 5871 5870 5869 5869 5868 5868 5867 5867
5888 5888 5889 5890 5890 5890 5891 5891 5891 5890 5890 5891 5891 5891 5890 5890 5889 5888 5887 5885 5884 5883 5881 5880 5879 5878 5876 5875 5875 5874 5873 5872 5871 5870 5869 5868 5868 5867 5866 5865 5865 5864 5864
5887 5888 5889 5889 5889 5890 5890 5891 5891 5890 5890 5891 5890 5890 5890 5889 5888 5887 5886 5884 5882 5881 5880 5878 5877 5875 5874 5873 5872 5871 5870 5869 5868 5867 5866 5865 5864 5864 5863 5862 5861 5861 5861
5886 5887 5888 5889 5889 5889 5889 5890 5890 5890 5890 5890 5890 5890 5889 5888 5887 5886 5884 5882 5881 5879 5877 5876 5875 5874 5872 5871 5870 5868 5867 5866 5864 5863 5862 5861 5860 5858 5858 5858 5857 5856 5856
5885 5886 5886 5887 5888 5888 5888 5889 5889 5889 5889 5889 5889 5889 5888 5887 5886 5884 5882 5880 5879 5877 5876 5875 5873 5872 5871 5869 5868 5866 5864 5862 5861 5859 5857 5856 5855 5853 5853 5852 5851 5851 5851
5883 5884 5885 5885 5886 5887 5887 5888 5888 5888 5888 5888 5888 5887 5886 5885 5883 5882 5880 5878 5877 5875 5875 5873 5872 5870 5869 5867 5865 5864 5862 5860 5858 5856 5854 5853 5851 5850 5848 5847 5846 5845 5844
5881 5882 5883 5884 5884 5886 5886 5887 5887 5887 5887 5886 5886 5885 5884 5883 5881 5879 5878 5876 5875 5873 5872 5871 5869 5867 5866 5864 5862 5860 5858 5857 5854 5852 5850 5848 5847 5845 5844 5842 5841 5840 5839
5879 5880 5881 5882 5883 5883 5884 5885 5885 5885 5885 5884 5884 5884 5883 5881 5879 5877 5876 5875 5872 5871 5870 5868 5866 5865 5863 5860 5858 5856 5854 5852 5849 5847 5844 5843 5841 5839 5838 5836 5835 5834 5833
5876 5877 5879 5880 5881 5881 5882 5883 5883 5883 5883 5883 5882 5881 5880 5879 5877 5875 5874 5872 5870 5869 5867 5865 5863 5861 5858 5856 5854 5851 5848 5845 5842 5840 5838 5836 5834 5832 5831 5830 5829 5828 5827
5872 5874 5876 5877 5877 5879 5879 5880 5881 5881 5881 5881 5880 5879 5878 5876 5874 5873 5871 5869 5867 5865 5863 5861 5859 5856 5853 5851 5847 5843 5839 5836 5833 5831 5829 5828 5826 5824 5823 5822 5821 5821 5820
5868 5870 5872 5873 5874 5875 5876 5877 5878 5879 5878 5878 5878 5877 5875 5874 5872 5869 5868 5865 5863 5861 5859 5856 5853 5850 5846 5842 5838 5834 5830 5827 5825 5822 5821 5820 5816 5815 5814 5814 5813 5813 5812
5863 5866 5868 5869 5870 5871 5873 5874 5875 5876 5876 5875 5875 5874 5873 5871 5869 5867 5864 5862 5860 5858 5854 5851 5847 5843 5838 5833 5828 5825 5821 5817 5814 5811 5811 5810 5807 5806 5805 5805 5804 5804 5804
5859 5862 5864 5865 5866 5868 5870 5870 5872 5873 5873 5872 5871 5870 5869 5867 5865 5863 5861 5858 5856 5853 5850 5846 5841 5835 5829 5824 5819 5815 5812 5809 5807 5804 5804 5803 5801 5800 5798 5798 5797 5797 5796
5855 5857 5859 5860 5861 5865 5866 5867 5868 5869 5869 5869 5868 5867 5865 5864 5861 5859 5857 5854 5851 5848 5844 5839 5834 5828 5822 5816 5811 5807 5804 5802 5801 5799 5799 5796 5795 5795 5794 5793 5793 5792 5791
5850 5853 5854 5855 5858 5861 5863 5863 5865 5865 5865 5865 5864 5863 5862 5860 5857 5855 5852 5848 5845 5841 5838 5832 5827 5822 5818 5813 5808 5802 5798 5797 5796 5794 5795 5793 5792 5791 5790 5789 5788 5787 5786
5846 5848 5850 5851 5855 5857 5859 5860 5861 5861 5861 5860 5860 5859 5858 5855 5853 5850 5847 5843 5839 5835 5831 5826 5822 5818 5815 5810 5806 5801 5798 5796 5794 5793 5793 5790 5788 5787 5786 5785 5783 5782 5782
5842 5844 5846 5848 5851 5854 5855 5856 5856 5857 5857 5856 5855 5854 5852 5850 5848 5844 5841 5837 5834 5829 5825 5821 5818 5814 5811 5807 5804 5800 5797 5795 5792 5789 5788 5786 5784 5783 5782 5781 5780 5779 5778
5837 5841 5842 5844 5847 5849 5850 5851 5852 5853 5852 5852 5850 5849 5848 5845 5842 5838 5835 5831 5827 5824 5820 5816 5813 5810 5807 5804 5801 5797 5794 5791 5789 5786 5783 5782 5781 5779 5778 5777 5776 5775 5774
5833 5836 5839 5841 5844 5845 5846 5847 5848 5848 5848 5846 5845 5844 5842 5838 5835 5832 5828 5825 5821 5818 5814 5811 5808 5805 5802 5799 5797 5794 5791 5788 5786 5784 5782 5779 5778 5776 5774 5773 5772 5771 5769
5829 5832 5834 5837 5839 5841 5842 5843 5843 5843 5842 5841 5839 5838 5836 5832 5829 5825 5822 5818 5815 5811 5808 5805 5803 5800 5797 5795 5792 5790 5787 5785 5782 5780 5779 5777 5774 5772 5770 5768 5766 5764 5763
5824 5827 5829 5832 5834 5836 5837 5838 5838 5837 5836 5834 5833 5832 5829 5826 5822 5818 5815 5811 5807 5804 5801 5798 5796 5794 5791 5789 5786 5785 5782 5779 5777 5775 5772 5771 5769 5767 5764 5762 5759 5757 5755
5819 5822 5825 5828 5830 5831 5832 5832 5831 5830 5829 5828 5827 5824 5822 5818 5815 5811 5808 5804 5800 5796 5793 5790 5789 5786 5785 5782 5779 5777 5774 5774 5771 5768 5764 5763 5761 5759 5756 5753 5750 5748 5746
5815 5818 5821 5823 5824 5825 5825 5825 5824 5823 5822 5821 5819 5817 5814 5810 5806 5803 5800 5796 5792 5788 5785 5782 5779 5777 5775 5773 5771 5768 5766 5763 5761 5760 5757 5754 5751 5749 5747 5744 5741 5737 5735
5811 5814 5816 5818 5818 5819 5819 5818 5817 5816 5815 5814 5812 5809 5805 5801 5797 5794 5791 5787 5783 5779 5776 5772 5769 5767 5765 5763 5761 5759 5756 5754 5751 5748 5746 5744 5742 5740 5735 5732 5730 5727 5724
5807 5809 5811 5812 5812 5812 5812 5811 5810 5809 5808 5805 5803 5799 5796 5792 5788 5785 5781 5778 5773 5770 5766 5762 5760 5757 5755 5753 5750 5748 5745 5743 5740 5738 5736 5732 5729 5727 5725 5721 5717 5714 5711
5802 5804 5805 5805 5805 5806 5805 5804 5803 5801 5798 5796 5792 5789 5785 5781 5777 5774 5770 5767 5763 5760 5755 5752 5749 5747 5745 5741 5739 5737 5735 5732 5728 5726 5724 5721 5718 5715 5712 5709 5704 5700 5696
Wind_Speed
1 1 4 4 4 5 6 5 2 0 2 3 5 6 7 8 10 11 12 13 13 12 12 11 12 12 11 12 12 12 14 14 15 14 13 13 13 14 16 16 16 16 15
3 4 4 5 7 7 6 6 3 1 1 2 2 4 6 8 10 12 14 15 16 16 15 15 14 15 15 16 16 17 17 17 18 18 19 18 18 17 16 16 19 19 18
5 5 5 8 8 8 6 5 4 3 2 1 2 4 6 9 12 14 16 18 19 19 18 18 17 18 18 19 20 21 22 22 23 23 24 24 23 21 21 20 20 20 21
8 7 8 9 10 9 6 6 5 4 3 3 4 5 8 11 14 17 20 21 19 19 19 18 18 18 19 20 20 21 22 23 23 23 25 26 26 27 26 25 23 23 23
9 9 8 10 10 9 7 7 6 6 5 5 6 8 11 13 16 20 22 19 14 14 13 13 13 14 15 16 17 18 18 19 20 21 22 23 24 26 26 27 27 26 26
11 10 10 11 11 10 9 8 8 7 7 7 8 10 13 16 19 24 20 14 13 12 13 13 13 14 15 16 17 18 19 21 22 22 23 23 24 24 24 24 26 27 28
13 11 11 13 12 12 11 10 9 9 9 8 10 12 15 19 23 22 16 13 12 12 13 15 17 19 19 20 22 22 22 23 24 25 26 26 26 27 27 26 25 26 26
15 13 14 14 16 14 12 12 12 11 10 10 11 14 17 20 23 18 14 14 13 15 17 19 21 23 24 25 26 27 28 28 29 28 29 30 30 30 29 30 29 29 28
28 24 21 18 20 17 14 14 13 12 11 12 13 15 18 22 22 16 15 15 17 19 21 23 25 27 30 30 31 33 35 35 35 35 35 35 35 35 36 35 33 32 31
24 24 23 22 22 21 16 15 15 13 13 13 14 16 19 24 21 17 17 17 19 21 24 26 28 31 34 36 37 39 40 41 41 42 41 40 40 41 40 38 39 38 36
26 26 25 24 23 21 18 19 17 15 14 13 14 17 21 25 19 18 19 20 23 25 27 30 33 37 39 42 44 46 46 47 47 48 47 45 44 43 41 39 39 39 39
28 26 26 25 24 22 21 18 17 15 14 13 15 18 23 21 20 20 22 24 27 29 31 34 38 41 45 49 51 50 48 45 44 43 38 37 37 36 35 34 34 34 35
27 26 26 22 22 21 23 19 17 17 15 15 16 19 21 22 24 25 27 29 32 32 33 37 40 44 50 52 49 44 40 35 32 31 29 27 28 27 26 24 23 23 24
30 26 28 28 29 24 23 19 18 16 16 16 17 20 22 25 27 29 31 32 33 34 36 39 41 44 49 41 38 40 38 33 31 30 26 20 18 18 17 18 20 21 21
31 25 26 26 21 26 23 19 19 17 18 18 18 21 24 28 30 32 33 34 34 35 38 40 40 40 33 31 31 30 27 25 21 18 14 15 17 18 20 22 23 23 23
30 29 26 22 25 25 22 22 20 20 19 20 21 23 26 29 32 34 34 36 36 37 39 39 35 32 32 29 27 23 19 15 15 18 19 22 24 25 24 23 22 20 20
28 28 31 19 24 26 24 23 22 21 22 23 24 25 28 30 34 35 35 37 36 38 38 34 30 33 25 26 26 24 23 23 23 25 24 23 23 21 20 20 20 21 22
28 31 22 25 26 27 26 24 24 23 24 26 27 29 31 32 35 36 36 37 37 38 37 32 34 27 25 25 25 25 25 27 25 23 21 19 21 22 22 23 23 24 25
29 31 26 28 29 28 27 26 25 26 27 28 29 31 33 34 37 38 38 38 38 38 37 32 31 28 26 26 27 26 23 22 21 22 23 24 23 24 26 27 27 27 29
29 30 28 29 29 29 29 28 27 29 29 31 32 33 35 36 39 40 40 40 39 39 38 33 30 30 27 27 26 26 25 24 26 26 27 27 28 29 30 32 34 34 34
28 28 28 30 30 30 30 29 30 31 32 33 34 36 36 39 41 42 41 42 41 41 40 36 34 32 31 29 30 31 30 31 30 31 31 31 32 34 36 36 37 37 37
27 28 28 29 30 31 31 31 32 33 34 35 36 38 39 41 44 44 43 43 43 43 42 38 38 37 35 34 34 35 35 34 35 36 37 37 37 37 38 40 40 40 40
26 27 28 29 31 32 33 34 35 36 36 37 39 40 42 44 46 46 44 44 44 45 44 43 42 41 40 39 36 35 36 38 39 39 39 39 41 41 41 42 43 45 44
26 27 29 30 33 33 34 36 37 38 38 39 41 43 46 48 49 48 47 46 46 47 47 47 44 43 43 42 40 40 41 42 41 42 43 42 42 44 46 47 46 47 48
27 29 30 31 33 34 36 38 39 39 40 42 44 47 50 51 51 49 48 49 49 50 50 48 45 43 42 43 44 45 45 45 45 45 46 48 49 49 48 50 51 52 53
28 29 32 33 35 36 38 40 41 41 43 45 47 51 54 54 52 51 51 51 50 50 51 48 45 44 44 45 46 47 47 47 48 48 49 51 52 54 54 55 57 59 61
Wind_Direction
234 283 235 248 289 294 290 282 282 307 100 84 67 49 33 18 6 357 350 346 339 331 322 318 316 315 315 314 313 313 311 310 309 307 306 302 296 286 278 277 278 276 274
275 293 258 265 265 286 287 281 276 251 157 94 62 29 11 356 347 342 338 334 329 324 320 316 313 309 307 306 305 304 302 300 299 299 299 296 294 293 289 282 272 271 272
272 300 287 273 269 270 284 282 272 256 229 243 333 350 341 337 338 339 332 327 323 318 314 311 309 310 309 309 306 305 303 301 299 298 297 295 293 288 285 282 282 280 274
267 276 278 278 278 278 270 269 265 260 256 270 297 321 326 330 335 337 330 324 320 319 313 311 310 312 313 313 313 311 309 308 305 301 300 299 297 295 290 284 278 275 277
262 271 271 278 281 277 264 262 257 259 265 277 293 314 322 330 334 334 329 326 331 334 339 339 336 333 330 329 326 322 318 313 310 306 302 298 296 293 292 288 284 278 273
259 265 273 271 278 271 264 256 255 259 271 288 302 317 326 331 332 334 326 326 329 333 329 329 327 324 322 320 318 314 312 310 308 305 303 301 298 294 292 289 287 282 278
260 268 272 272 267 264 255 252 252 259 273 290 305 321 331 334 334 331 326 324 324 323 324 324 325 324 322 319 314 310 306 303 302 300 297 295 293 291 289 287 284 283 281
255 268 281 278 270 256 247 247 252 261 277 293 308 322 331 335 336 329 323 320 326 325 325 322 320 319 315 311 307 305 302 297 293 289 288 289 289 288 286 285 284 281 279
260 266 270 272 275 256 242 244 250 261 276 293 309 324 331 337 334 326 321 323 328 325 321 318 317 316 310 306 306 304 298 293 290 287 285 285 285 286 286 285 282 281 280
250 256 260 264 259 251 240 247 253 263 275 291 310 326 330 330 328 323 321 322 323 320 317 317 314 310 308 305 300 295 290 287 286 286 286 289 290 289 288 290 288 285 284
249 251 251 254 249 239 238 241 250 262 275 294 312 322 327 326 321 318 318 319 318 316 317 315 315 313 306 300 296 291 289 291 292 292 292 293 291 288 288 286 287 286 284
257 259 251 249 239 234 237 237 247 262 277 294 309 321 328 326 321 318 318 317 316 316 316 318 317 313 307 302 300 300 300 297 293 291 291 289 289 289 288 284 283 281 282
266 255 249 248 234 240 235 238 247 260 275 291 307 320 326 327 324 321 319 319 319 318 317 316 317 312 307 307 307 302 301 300 299 299 299 298 295 294 292 290 288 286 283
261 252 253 248 237 235 234 238 247 259 272 287 300 315 322 326 326 322 320 321 319 319 320 319 320 315 311 315 316 307 301 297 297 299 300 301 299 301 296 295 294 292 289
256 251 249 257 234 234 236 240 248 258 272 285 297 310 320 325 325 324 320 320 320 319 321 322 321 317 320 324 330 327 317 301 295 301 309 302 299 296 294 292 289 286 285
251 250 253 234 240 234 238 243 250 262 274 285 293 306 314 318 322 322 320 321 319 319 322 321 320 320 319 325 331 339 336 325 314 309 305 300 299 297 293 291 290 290 288
246 244 247 235 239 238 239 244 253 265 276 285 290 301 306 313 319 320 318 320 316 318 320 316 313 316 321 323 322 323 321 314 307 303 302 302 301 301 300 297 296 294 292
242 246 251 247 233 238 241 249 258 269 279 284 291 297 303 311 315 316 317 318 314 315 315 306 310 307 313 319 320 313 309 307 308 307 307 302 301 298 294 294 293 295 295
243 241 239 239 235 240 246 252 262 272 279 285 290 296 300 307 311 314 316 315 312 311 312 301 302 302 305 309 314 314 312 309 307 306 304 299 295 295 296 294 292 293 294
240 238 237 233 237 243 249 257 266 274 280 284 291 295 298 304 309 312 314 313 309 309 308 294 294 297 298 302 305 308 306 304 300 299 301 296 295 295 296 294 293 293 292
238 235 232 233 239 246 253 261 268 275 280 286 291 294 297 302 307 309 310 310 307 305 305 292 286 290 293 294 297 297 297 298 296 296 296 296 296 297 296 296 295 294 293
235 230 230 237 245 251 258 264 270 275 281 288 291 293 296 301 304 307 309 308 304 303 304 296 284 284 284 287 290 292 292 292 292 292 293 294 293 293 291 291 291 291 290
231 229 234 241 249 255 262 268 273 279 284 288 291 292 295 299 302 305 307 305 301 302 303 298 287 279 280 283 285 286 289 292 293 291 289 289 289 289 289 288 289 290 290
231 235 241 247 254 260 267 272 277 282 285 288 290 292 295 298 301 305 306 302 299 301 303 299 290 281 281 281 282 284 287 290 289 289 290 290 289 289 292 293 292 291 290
236 242 248 253 260 267 271 275 279 283 286 286 288 291 294 298 302 303 302 299 298 301 302 297 290 284 285 282 282 283 285 287 288 289 292 295 294 292 291 290 291 290 290
245 250 256 260 265 269 274 278 281 283 283 286 288 290 293 298 300 301 299 297 296 299 300 296 288 287 289 287 284 285 287 288 289 291 293 293 294 293 292 292 292 291 290